BEIDOU-3 M21

Last updated on Jan. 16, 2021, 6:29 a.m. UTC

1 44793U 19078A   21015.06306495 -.00000101  00000-0  10000-3 0  9991
2 44793  55.0637   8.4509 0006893 345.0275 135.7726  1.86232052  7796
UTC
Height (km)
Latitude
Longitude
Inclination
Orbital Period
UTC large
Height (km)
Speed (km/s)
/
Latitude / Longitude
Inclination (degrees)
Orbital Period (minutes)
Azimuth
Elevation
Range (km)
Doppler Factor
iOS Compass Heading
iOS Angle

Next 30 passes for location: Hong Kong

Rise time Rise Azimuth (degrees) Set time Set Azimuth (degrees) Duration Max altitude (degrees)

No matching passes for this satellites